Location: Foligno
(42.9600°N, 12.7050°E)
Time: 23:27:43
(UTC+02:00)

ISS - Pass Details

Date: 20 July 2018
Orbit: 402 x 408 km, 51.6° (Epoch: 16 July)

Event Time Altitude Azimuth Distance (km) Brightness Sun altitude
Rises 02:14:38 0° 301° (WNW) 2,328 0.2 -24.9°
Reaches altitude 10° 02:17:07 10° 320° (NW) 1,468 -0.6 -24.8°
Maximum altitude 02:19:35 19° 9° (N) 1,037 -1.0 -24.7°
Drops below altitude 10° 02:22:02 10° 57° (ENE) 1,468 -0.4 -24.5°
Sets 02:24:32 0° 76° (ENE) 2,328 0.5 -24.4°
